Regional Weather Roundup
Issued by NWS

Home | Current Version | Previous Version | Text Only | Print | Product List | Glossary On
Versions: 1 2 3 4 5 6 7 8 9 10 11 12 13 14 15 16 17 18 19 20 21 22 23 24 25 26 27 28 29 30 31 32 33 34 35 36 37 38 39 40 41 42 43 44 45 46 47 48 49 50
296
ASUS42 KFFC 250010
RWRGA
WEATHER ROUNDUP FOR GEORGIA
NATIONAL WEATHER SERVICE PEACHTREE CITY GA
700 PM EST FRI NOV 24 2017

NOTE: "FAIR" INDICATES FEW OR NO CLOUDS BELOW 12,000 FEET WITH NO
SIGNIFICANT WEATHER AND/OR OBSTRUCTIONS TO VISIBILITY.

* = USE WITH CAUTION. THE STATIONS MARKED WITH AN ASTERISK MAY NOT
REPORT WEATHER SUCH AS PRECIPITATION, FOG, OR THUNDER AND ARE NOT
QUALITY CONTROLLED BY NWS.

THE REMARK "TC" DENOTES TEMPERATURE READING IN DEGREES CELSIUS.

GAZ001>058-250100-
NORTH GEORGIA

CITY           SKY/WX    TMP DP  RH WIND       PRES   REMARKS
ATLANTA        PTCLDY    55  44  66 CALM      29.96R
6HR MIN TEMP:  55; 6HR MAX TEMP:  63;

ATHENS         CLEAR     45  41  86 CALM      29.97R
6HR MIN TEMP:  45; 6HR MAX TEMP:  63;

CHAMBLEE       CLEAR     48  40  73 CALM      29.96R
6HR MIN TEMP:  48; 6HR MAX TEMP:  63;

PEACHTREE CITY CLEAR     48  44  86 CALM      29.97R
6HR MIN TEMP:  48; 6HR MAX TEMP:  66;

ROME           CLEAR     48  43  82 CALM      29.94R
6HR MIN TEMP:  48; 6HR MAX TEMP:  65;

WEST ATLANTA   CLEAR     50  44  80 CALM      29.96R
6HR MIN TEMP:  49; 6HR MAX TEMP:  64;

GAINESVILLE    CLEAR     54  38  54 S5        29.98R
6HR MIN TEMP:  52; 6HR MAX TEMP:  62;

CARTERSVILLE   CLEAR     46  44  93 CALM      29.96R
6HR MIN TEMP:  45; 6HR MAX TEMP:  65;



CITY           SKY/WX    TMP DP  RH WIND       PRES   REMARKS
DALTON*        CLEAR     46  43  87 CALM      29.96R
LAWRENCEVILLE* CLEAR     48  41  76 CALM      29.98R
MARIETTA       CLEAR     50  42  75 CALM      29.95R
KENNESAW*      CLEAR     50  41  71 CALM      29.96R
CANTON*        CLEAR     54  41  62 CALM      29.97S
$$

GAZ059>098-102>109-250100-
CENTRAL GEORGIA

CITY           SKY/WX    TMP DP  RH WIND       PRES   REMARKS
AUGUSTA-BUSH   CLEAR     44  39  82 CALM      29.96R
6HR MIN TEMP:  44; 6HR MAX TEMP:  65;

AUGUSTA-DANIEL CLEAR     53  38  56 NW5       29.97R
6HR MIN TEMP:  53; 6HR MAX TEMP:  65;

COLUMBUS       CLEAR     57  44  62 CALM      29.97R
6HR MIN TEMP:  57; 6HR MAX TEMP:  67;

MACON          CLEAR     49  39  68 W3        29.98R
6HR MIN TEMP:  49; 6HR MAX TEMP:  67;

ROBINS AFB     CLEAR     50  42  74 CALM      29.97R HAZE


CITY           SKY/WX    TMP DP  RH WIND       PRES   REMARKS
LAGRANGE*      CLEAR     47  46  98 CALM      29.97R
SYLVANIA*      CLEAR     47  42  84 CALM      29.98R
MILLEDGEVILLE* CLEAR     48  43  81 CALM      29.98R
$$

GAZ099>101-110>166-250100-
SOUTH GEORGIA

CITY           SKY/WX    TMP DP  RH WIND       PRES   REMARKS
SAVANNAH       PTCLDY    50  44  80 CALM      29.96R
6HR MIN TEMP:  50; 6HR MAX TEMP:  66;

VALDOSTA       CLEAR     49  44  83 CALM      29.97R
6HR MIN TEMP:  49; 6HR MAX TEMP:  67;

ALMA           CLEAR     47  44  90 CALM      29.96R
6HR MIN TEMP:  47; 6HR MAX TEMP:  68;

ST SIMONS      CLEAR     56  48  74 CALM      29.95R
6HR MIN TEMP:  56; 6HR MAX TEMP:  67;

FT STEWART     CLEAR     48  43  83 CALM      29.94R
ALBANY         CLEAR     53  44  71 CALM      29.95R
HUNTER AFB     CLEAR     53  42  67 CALM      29.93R
MOODY AFB      CLEAR     53  47  82 CALM      29.96R
BRUNSWICK      CLEAR     52  46  82 CALM      29.96R


CITY           SKY/WX    TMP DP  RH WIND       PRES   REMARKS
BAINBRIDGE*    CLEAR     55  50  82 CALM      29.98R
MOULTRIE*      CLEAR     52  46  82 CALM      29.97S
VIDALIA*       CLEAR     50  43  76 CALM      29.98R
WAYCROSS*      CLEAR     51  46  82 CALM      29.97R
DOUGLAS*       CLEAR     50  41  71 CALM      29.98R
$$




USA.gov is the U.S. government's official web portal to all federal, state and local government web resources and services.